TimePDT,TemperatureF,Dew PointF,Humidity,Sea Level PressureIn,VisibilityMPH,Wind Direction,Wind SpeedMPH,Gust SpeedMPH,PrecipitationIn,Events,Conditions,WindDirDegrees,DateUTC
12:56 AM,72.0,32.0,23,30.03,10.0,Calm,Calm,-,N/A,,Clear,0,2013-07-10 07:56:00
1:56 AM,66.0,34.0,30,30.03,10.0,WSW,5.8,-,N/A,,Clear,240,2013-07-10 08:56:00
2:56 AM,66.0,35.1,32,30.03,10.0,West,9.2,-,N/A,,Clear,270,2013-07-10 09:56:00
3:56 AM,60.1,35.1,39,30.02,10.0,South,3.5,-,N/A,,Clear,190,2013-07-10 10:56:00
4:56 AM,61.0,35.1,38,30.03,10.0,Calm,Calm,-,N/A,,Clear,0,2013-07-10 11:56:00
5:56 AM,59.0,32.0,36,30.04,10.0,South,6.9,-,N/A,,Clear,180,2013-07-10 12:56:00
6:10 AM,60.8,33.8,36,30.14,10.0,South,5.8,-,N/A,,Partly Cloudy,180,2013-07-10 13:10:00
6:56 AM,66.2,33.8,30,30.05,10.0,South,4.6,-,N/A,,Partly Cloudy,190,2013-07-10 13:56:00
7:56 AM,73.4,33.8,23,30.05,10.0,SW,4.6,-,N/A,,Partly Cloudy,220,2013-07-10 14:56:00
8:56 AM,78.8,33.8,20,30.06,10.0,SSW,3.5,-,N/A,,Partly Cloudy,200,2013-07-10 15:56:00
9:56 AM,82.4,28.4,14,30.04,10.0,Calm,Calm,-,N/A,,Partly Cloudy,0,2013-07-10 16:56:00
10:56 AM,87.1,28.0,12,30.03,10.0,Variable,3.5,-,N/A,,Partly Cloudy,0,2013-07-10 17:56:00
11:56 AM,87.1,25.0,10,30.01,10.0,Calm,Calm,-,N/A,,Partly Cloudy,0,2013-07-10 18:56:00
12:56 PM,91.0,24.1,9,30.00,10.0,West,9.2,-,N/A,,Partly Cloudy,280,2013-07-10 19:56:00
1:56 PM,91.9,26.1,9,29.97,10.0,Calm,Calm,-,N/A,,Partly Cloudy,0,2013-07-10 20:56:00
2:56 PM,95.0,27.0,9,29.95,10.0,NW,6.9,-,N/A,,Scattered Clouds,310,2013-07-10 21:56:00
3:56 PM,95.0,28.9,10,29.91,10.0,Calm,Calm,-,N/A,,Scattered Clouds,0,2013-07-10 22:56:00
4:56 PM,93.9,28.9,10,29.90,10.0,Calm,Calm,-,N/A,,Mostly Cloudy,0,2013-07-10 23:56:00
5:56 PM,93.9,34.0,12,29.89,10.0,West,13.8,-,N/A,,Mostly Cloudy,270,2013-07-11 00:56:00
6:56 PM,91.0,36.0,14,29.91,10.0,West,13.8,-,N/A,,Mostly Cloudy,280,2013-07-11 01:56:00
7:56 PM,89.1,34.0,14,29.91,10.0,WSW,15.0,20.7,N/A,,Mostly Cloudy,240,2013-07-11 02:56:00
8:56 PM,86.0,35.1,16,29.93,10.0,SW,9.2,-,N/A,,Mostly Cloudy,220,2013-07-11 03:56:00
9:56 PM,86.0,35.1,16,29.94,10.0,WSW,11.5,20.7,N/A,,Mostly Cloudy,250,2013-07-11 04:56:00
10:56 PM,84.0,37.0,19,29.94,10.0,SW,5.8,-,N/A,,Mostly Cloudy,230,2013-07-11 05:56:00
11:56 PM,82.0,39.0,22,29.92,10.0,WSW,8.1,-,N/A,,Scattered Clouds,240,2013-07-11 06:56:00